GW2598 Weather Reports


time (UTC)temp
C
wind
direction
speed
KPH
gust
KPH
rain 1hr
cm
rain 24hr
cm
rain mn
cm
humidity
%
barometer
mb
20260506003054 18 213 8.0 22.5 0.00 0.00 0.00 67 1008.7
20260506001612 18 213 11.3 24.1 0.00 0.00 0.00 66 1008.6
20260506000053 18 234 14.5 29.0 0.00 0.00 0.00 66 1008.4
20260505234553 18 197 9.7 27.4 0.00 0.00 0.00 66 1008.3
20260505233056 18 225 14.5 29.0 0.00 0.00 0.00 65 1008.0
20260505231554 18 202 12.9 24.1 0.00 0.00 0.00 64 1007.9
20260505230110 19 218 11.3 25.7 0.00 0.00 0.00 62 1007.8
20260505224557 20 200 11.3 22.5 0.00 0.00 0.00 61 1007.6
20260505223058 20 216 12.9 25.7 0.00 0.00 0.00 61 1007.4
20260505221559 20 236 11.3 22.5 0.00 0.00 0.00 61 1007.7
20260505220056 20 200 14.5 29.0 0.00 0.00 0.00 60 1007.4
20260505214606 20 166 11.3 29.0 0.00 0.00 0.00 58 1007.3
20260505213100 21 196 8.0 30.6 0.00 0.00 0.00 57 1007.1
20260505211607 21 184 14.5 27.4 0.00 0.00 0.00 56 1007.0
20260505210106 22 167 14.5 35.4 0.00 0.00 0.00 55 1007.1
20260505204554 22 178 14.5 25.7 0.00 0.00 0.00 54 1007.1
20260505203054 22 181 12.9 27.4 0.00 0.00 0.00 54 1007.2
20260505201605 22 136 9.7 33.8 0.00 0.00 0.00 54 1007.3
20260505200053 22 142 16.1 30.6 0.00 0.00 0.00 54 1007.4
20260505194558 22 159 14.5 35.4 0.00 0.00 0.00 54 1007.7
20260505193054 22 172 16.1 30.6 0.00 0.00 0.00 54 1007.9
20260505191557 22 229 19.3 38.6 0.00 0.00 0.00 53 1007.9
20260505190111 23 181 11.3 27.4 0.00 0.00 0.00 53 1008.4
20260505184607 23 179 9.7 22.5 0.00 0.00 0.00 53 1008.6
20260505183054 23 128 9.7 35.4 0.00 0.00 0.00 53 1008.7
20260505181557 23 165 16.1 40.2 0.00 0.00 0.00 52 1008.7
20260505180055 24 188 16.1 30.6 0.00 0.00 0.00 51 1008.6
20260505174552 25 159 19.3 41.8 0.00 0.00 0.00 48 1008.7
20260505173056 25 161 11.3 29.0 0.00 0.00 0.00 45 1008.8
20260505171554 25 262 11.3 33.8 0.00 0.00 0.00 46 1008.9
20260505170105 24 214 14.5 32.2 0.00 0.00 0.00 47 1009.2
20260505164555 24 162 14.5 29.0 0.00 0.00 0.00 48 1009.3
20260505163107 23 180 12.9 24.1 0.00 0.00 0.00 50 1009.3
20260505161552 23 107 11.3 27.4 0.00 0.00 0.00 52 1009.7
20260505153107 23 219 8.0 20.9 0.00 0.00 0.00 51 1009.9
20260505151554 23 217 9.7 22.5 0.00 0.00 0.00 50 1010.0
20260505150111 23 234 6.4 19.3 0.00 0.00 0.00 49 1010.1
20260505140110 21 158 3.2 12.9 0.00 0.00 0.00 58 1010.2
20260505130110 17 133 4.8 11.3 0.00 0.00 0.00 68 1010.1
20260505124609 16 155 3.2 11.3 0.00 0.00 0.00 73 1010.1
20260505123114 15 151 1.6 9.7 0.00 0.00 0.00 78 1010.1
20260505121556 14 158 4.8 11.3 0.00 0.00 0.00 81 1010.4
20260505120056 13 0 0.0 8.0 0.00 0.00 0.00 83 1010.2
20260505114602 13 186 1.6 8.0 0.00 0.00 0.00 84 1010.4
20260505113055 13 0 0.0 3.2 0.00 0.00 0.00 87 1010.4
20260505111600 11 0 0.0 0.0 0.00 0.00 0.00 92 1010.3
20260505101553 9 0 0.0 0.0 0.00 0.00 0.00 92 1009.9
20260505100103 9 0 0.0 0.0 0.00 0.00 0.00 92 1009.5
20260505094604 9 0 0.0 0.0 0.00 0.00 0.00 91 1009.5
20260505093056 9 0 0.0 0.0 0.00 0.00 0.00 90 1009.4
20260505091554 10 0 0.0 4.8 0.00 0.00 0.00 91 1009.4
20260505090111 10 0 1.6 3.2 0.00 0.00 0.00 90 1009.4
20260505084554 10 0 0.0 1.6 0.00 0.00 0.00 89 1009.4
20260505083108 10 0 0.0 0.0 0.00 0.00 0.00 88 1009.3
20260505081554 11 0 0.0 4.8 0.00 0.00 0.00 89 1009.4
20260505080058 11 211 1.6 8.0 0.00 0.00 0.00 89 1009.5
20260505074556 11 211 4.8 9.7 0.00 0.00 0.00 89 1009.3
20260505073101 11 174 1.6 8.0 0.00 0.00 0.00 88 1009.3
20260505071559 11 213 3.2 6.4 0.00 0.00 0.00 87 1009.2
20260505070057 11 0 0.0 1.6 0.00 0.00 0.00 85 1009.3
20260505064554 11 215 0.0 4.8 0.00 0.00 0.00 83 1009.4
20260505063100 12 0 0.0 0.0 0.00 0.00 0.00 81 1009.4
20260505061602 12 171 1.6 4.8 0.00 0.00 0.00 79 1009.6
20260505060055 12 169 3.2 8.0 0.00 0.00 0.00 78 1009.5
20260505054558 12 167 1.6 8.0 0.00 0.00 0.00 75 1009.5
20260505053055 13 190 3.2 6.4 0.00 0.00 0.00 72 1009.7
20260505051558 13 209 4.8 12.9 0.00 0.00 0.00 71 1009.7
20260505050128 13 198 3.2 12.9 0.00 0.00 0.00 71 1009.8
20260505041604 14 239 6.4 14.5 0.00 0.00 0.00 68 1010.1
20260505040100 14 216 6.4 19.3 0.00 0.00 0.00 68 1010.1
20260505034554 14 184 6.4 14.5 0.00 0.00 0.00 68 1010.2
20260505033055 14 207 4.8 12.9 0.00 0.00 0.00 68 1010.2
20260505031556 14 215 4.8 12.9 0.00 0.00 0.00 68 1010.4
20260505030058 14 180 4.8 14.5 0.00 0.00 0.00 69 1010.2
20260505024555 14 167 4.8 12.9 0.00 0.00 0.00 69 1010.2
20260505023055 14 213 6.4 12.9 0.00 0.00 0.00 70 1010.4
20260505021556 13 194 3.2 9.7 0.00 0.00 0.00 72 1010.5
20260505020054 14 172 1.6 9.7 0.00 0.00 0.00 71 1010.4
20260505014606 14 196 3.2 16.1 0.00 0.00 0.00 70 1010.4
20260505013054 14 163 4.8 14.5 0.00 0.00 0.00 70 1010.3
20260505011604 14 192 6.4 16.1 0.00 0.00 0.00 71 1010.0
20260505010100 14 204 6.4 14.5 0.00 0.00 0.00 71 1009.8
20260505004559 14 171 4.8 12.9 0.00 0.00 0.00 71 1009.8